Flight Track Log - Related Links

Times and Time Zones

All times are in EDT time to prevent confusion due to time zone crossing. See the UAL4476 flight status page for this flight to view local times or setup timezone preferences in your user account.

Time Position Orientation Groundspeed Altitude Reporting Facility
EDT Latitude Longitude Course Direction KTS MPH feet Rate Location/Type
Tue 06:27:42 AM 35.2283 -80.9394 11° North 169 194 1,600  Level Atlanta Center
Tue 06:29:55 AM 35.3694 -80.9061 11° North 239 275 7,300 2,767 Climbing Atlanta Center
Tue 06:30:55 AM 35.4467 -80.9031 North 271 312 10,500 2,650 Climbing Atlanta Center
Tue 06:31:55 AM 35.5342 -80.8972 North 293 337 12,600 1,900 Climbing Atlanta Center
Tue 06:32:55 AM 35.6278 -80.8936 North 319 367 14,300 1,850 Climbing Atlanta Center
Tue 06:33:55 AM 35.7278 -80.8897 North 345 397 16,300 1,950 Climbing Atlanta Center
Tue 06:34:55 AM 35.8328 -80.9114 351° North 366 421 18,200 2,150 Climbing Atlanta Center
Tue 06:35:55 AM 35.9314 -80.9383 348° North 373 429 20,600 2,450 Climbing Atlanta Center
Tue 06:36:55 AM 36.0303 -80.9628 349° North 368 423 23,100 2,450 Climbing Atlanta Center
Tue 06:37:55 AM 36.1289 -80.9872 349° North 358 412 25,500 2,250 Climbing Atlanta Center
Tue 06:38:55 AM 36.2275 -81.0092 350° North 352 405 27,600 2,050 Climbing Atlanta Center
Tue 06:39:55 AM 36.3217 -81.0314 349° North 352 405 29,600 2,050 Climbing Atlanta Center
Tue 06:40:55 AM 36.4142 -81.0564 348° North 352 405 31,700 1,200 Climbing Atlanta Center
Tue 06:41:55 AM 36.5147 -81.0811 349° North 358 412 32,000 90 Climbing Atlanta Center
Tue 06:44:14 AM 36.7811 -81.1506 348° North 439 505 32,000  Level Indianapolis Center
Tue 06:45:14 AM 36.9017 -81.1814 348° North 449 517 32,000  Level Indianapolis Center
Tue 06:46:15 AM 37.0192 -81.2103 349° North 443 510 32,000  Level Indianapolis Center
Tue 06:47:16 AM 37.1528 -81.2439 349° North 441 507 32,000  Level Indianapolis Center
Tue 06:48:17 AM 37.2756 -81.2753 349° North 446 513 32,000  Level Indianapolis Center
Tue 06:49:17 AM 37.3956 -81.3064 348° North 437 503 32,000  Level Indianapolis Center
Tue 06:50:18 AM 37.5164 -81.3381 348° North 445 512 32,000  Level Indianapolis Center
Tue 06:51:19 AM 37.6344 -81.3675 349° North 442 509 32,000  Level Indianapolis Center
Tue 06:52:20 AM 37.7525 -81.3992 348° North 443 510 32,000  Level Indianapolis Center
Tue 06:53:21 AM 37.8853 -81.4333 349° North 443 510 32,000  Level Indianapolis Center
Tue 06:54:21 AM 38.0069 -81.4658 348° North 445 512 32,000  Level Indianapolis Center
Tue 06:55:22 AM 38.1281 -81.4958 349° North 443 510 32,000  Level Indianapolis Center
Tue 06:56:23 AM 38.2500 -81.5289 348° North 446 513 32,000  Level Indianapolis Center
Tue 06:57:24 AM 38.3706 -81.5606 348° North 442 509 32,000  Level Indianapolis Center
Tue 06:58:24 AM 38.4922 -81.5931 348° North 443 510 32,000  Level Indianapolis Center
Tue 06:59:25 AM 38.6142 -81.6261 348° North 441 507 32,000  Level Indianapolis Center
Tue 07:00:26 AM 38.7250 -81.6547 349° North 438 504 32,000  Level Indianapolis Center
Tue 07:01:27 AM 38.8625 -81.6900 349° North 439 505 32,000  Level Indianapolis Center
Tue 07:02:28 AM 38.9819 -81.7219 348° North 434 499 32,000  Level Indianapolis Center
Tue 07:03:29 AM 39.1025 -81.7553 348° North 440 506 32,000  Level Indianapolis Center
Tue 07:04:29 AM 39.2225 -81.7875 348° North 441 507 32,000  Level Indianapolis Center
Tue 07:05:30 AM 39.3417 -81.8183 349° North 437 503 32,000  Level Indianapolis Center
Tue 07:06:31 AM 39.4608 -81.8503 348° North 436 502 32,000 -590 Level Indianapolis Center
Tue 07:07:32 AM 39.5792 -81.8828 348° North 435 501 30,800 -1,377 Descending Indianapolis Center
Tue 07:08:33 AM 39.7097 -81.9186 348° North 441 507 29,200 -1,525 Descending Indianapolis Center
Tue 07:09:34 AM 39.8311 -81.9528 348° North 443 510 27,700 -1,475 Descending Indianapolis Center
Tue 07:10:35 AM 39.9533 -81.9864 348° North 446 513 26,200 -1,475 Descending Indianapolis Center
Tue 07:11:36 AM 40.0758 -82.0197 348° North 445 512 24,700 -1,475 Descending Indianapolis Center
Tue 07:12:37 AM 40.1928 -82.0522 348° North 428 493 23,200 -1,426 Descending Indianapolis Center
Tue 07:13:38 AM 40.3050 -82.0839 348° North 417 480 21,800 -1,475 Descending Indianapolis Center
Tue 07:14:39 AM 40.4147 -82.1142 348° North 402 463 20,200 -1,519 Descending Indianapolis Center
Tue 07:14:57 AM 40.4550 -82.1111 North 401 461 19,800 -1,462 Descending Cleveland Center
Tue 07:15:57 AM 40.5497 -82.0342 32° Northeast 382 440 18,300 -1,450 Descending Cleveland Center
Tue 07:16:57 AM 40.6386 -81.9483 36° Northeast 392 451 16,900 -1,412 Descending Cleveland Center
Tue 07:17:22 AM 40.6700 -81.9217 33° Northeast 396 456 16,300 -1,700 Descending Cleveland Center
Tue 07:17:57 AM 40.7269 -81.8600 39° Northeast 392 451 15,200 -1,958 Descending Cleveland Center
Tue 07:18:57 AM 40.8114 -81.7764 37° Northeast 392 451 13,200 -2,000 Descending Cleveland Center
Tue 07:19:57 AM 40.9075 -81.7508 11° North 357 411 11,200 -1,600 Descending Cleveland Center
Tue 07:20:57 AM 40.9911 -81.7383 North 336 387 10,000 -960 Descending Cleveland Center
Tue 07:21:12 AM 41.0203 -81.7389 359° North 334 384 10,000  Level Cleveland Center
Tue 07:21:57 AM 41.0892 -81.7292 North 336 387 10,000  Level Cleveland Center
Tue 07:22:13 AM 41.1183 -81.7297 359° North 355 409 10,000 -100 Level Cleveland Center
Tue 07:22:57 AM 41.1808 -81.7197 North 342 394 9,900 -300 Descending Cleveland Center
Tue 07:23:13 AM 41.2122 -81.7175 North 274 315 9,700 -1,300 Descending Cleveland Center
Tue 07:23:57 AM 41.2561 -81.7100 North 297 342 8,600 -1,869 Descending Cleveland Center
Tue 07:24:14 AM 41.2833 -81.7078 North 259 298 7,800 -2,200 Descending Cleveland Center
Tue 07:24:57 AM 41.3375 -81.7058 North 271 312 6,400 -2,300 Descending Cleveland Center
Tue 07:25:14 AM 41.3583 -81.7089 354° North 266 306 5,500 -2,500 Descending Cleveland Center
Tue 07:25:57 AM 41.4103 -81.7211 350° North 260 299 3,900 -2,262 Descending Cleveland Center
Tue 07:26:15 AM 41.4247 -81.7294 337° Northwest 237 273 3,200 -1,500 Descending Cleveland Center
Tue 07:26:57 AM 41.4494 -81.7689 310° West 210 242 2,400 -1,082 Descending Cleveland Center
Tue 07:27:16 AM 41.4514 -81.7856 279° West 146 168 2,100 -835 Descending Cleveland Center
Tue 07:28:16 AM 41.4300 -81.8239 233° Southwest 127 146 1,300 -800 Descending Cleveland Center
Tue 07:30:00 AM 41.4094 -81.8547 228° Southwest  Level Estimated
Tue 07:37:00 AM 41.4094 -81.8547 225° Southwest  Level Estimated

Login

Don't have an account? Register now (free) for customized features, flight alerts, and more!